Stations météo

Publicité
Dijon, France (7280): Température de l'air & dewpoint: 07.08.2020 14:00:00 - 13.08.2020 14:00:00 (CEST)Dijon, France (7280): Température de l'air 5cm: 07.08.2020 14:00:00 - 13.08.2020 14:00:00 (CEST)Dijon, France (7280): Température de l'air -20cm & Température de l'air -100cm: 07.08.2020 14:00:00 - 13.08.2020 14:00:00 (CEST)Dijon, France (7280): Vitesse du vent & gusts: 07.08.2020 14:00:00 - 13.08.2020 14:00:00 (CEST)Dijon, France (7280): Direction du vent: 07.08.2020 14:00:00 - 13.08.2020 14:00:00 (CEST)Dijon, France (7280): reduced air pressure: 07.08.2020 14:00:00 - 13.08.2020 14:00:00 (CEST)Dijon, France (7280): visibility: 07.08.2020 14:00:00 - 13.08.2020 14:00:00 (CEST)Dijon, France (7280): Ensoleillement: 07.08.2020 14:00:00 - 13.08.2020 14:00:00 (CEST)Dijon, France (7280): Quantités de précipitations: 07.08.2020 14:00:00 - 13.08.2020 14:00:00 (CEST)
Date & Time tt [°C] td [°C] tt 5cm [°C] tt -20cm [°C] tt -100cm [°C] ff [km/h] ff [knt] fx [km/h] fx [knt] dd ppp [hPa] vv [km] sd [min] rr [mm]
13.08.2020 14:00:00 - - - - - - - - - - - - - -
13.08.2020 13:00:00 - - - - - - - - - - - - - -
13.08.2020 12:00:00 - - - - - - - - - - - - - -
13.08.2020 11:00:00 - - - - - - - - - - - - - -
13.08.2020 10:00:00 - - - - - - - - - - - - - -
13.08.2020 09:00:00 - - - - - - - - - - - - - -
13.08.2020 08:00:00 - - - - - - - - - - - - - -
13.08.2020 07:00:00 - - - - - - - - - - - - - -
13.08.2020 06:00:00 - - - - - - - - - - - - - -
13.08.2020 05:00:00 - - - - - - - - - - - - - -
13.08.2020 04:00:00 - - - - - - - - - - - - - -
13.08.2020 03:00:00 - - - - - - - - - - - - - -
13.08.2020 02:00:00 - - - - - - - - - - - - - -
13.08.2020 01:00:00 - - - - - - - - - - - - - -
13.08.2020 00:00:00 - - - - - - - - - - - - - -
12.08.2020 23:00:00 - - - - - - - - - - - - - -
12.08.2020 22:00:00 - - - - - - - - - - - - - -
12.08.2020 21:00:00 - - - - - - - - - - - - - -
12.08.2020 20:00:00 - - - - - - - - - - - - - -
12.08.2020 19:00:00 - - - - - - - - - - - - - -
12.08.2020 18:00:00 - - - - - - - - - - - - - -
12.08.2020 17:00:00 - - - - - - - - - - - - - -
12.08.2020 16:00:00 - - - - - - - - - - - - - -
12.08.2020 15:00:00 - - - - - - - - - - - - - -
12.08.2020 14:00:00 34,4 13,8 47,4 26,4 21,2 25 13 38 21 S 1011,7 19 60 0,0
12.08.2020 13:00:00 33,1 15,6 45,8 26,3 21,1 18 10 30 16 S 1012,4 33 60 0,0
12.08.2020 12:00:00 31,5 16,3 40,4 26,3 21,1 12 7 25 14 SE 1013,0 35 60 0,0
12.08.2020 11:00:00 29,7 16,5 36,6 26,4 21,1 13 7 23 13 S 1013,5 19 60 0,0
12.08.2020 10:00:00 29,0 16,2 30,5 26,5 21,1 5 3 13 7 SE 1013,6 20 60 0,0
12.08.2020 09:00:00 26,9 16,8 24,7 26,6 21,1 0 0 5 3 N 1014,1 45 60 0,0
12.08.2020 08:00:00 23,5 18,4 19,7 26,7 21,1 3 1 6 4 E 1014,2 27 34 0,0
12.08.2020 07:00:00 21,9 17,5 19,8 26,8 21,1 2 1 13 7 NNW 1014,1 60 0 0,0
12.08.2020 06:00:00 22,4 18,0 21,2 27,0 21,1 8 4 16 9 S 1013,8 59 0 0,0
12.08.2020 05:00:00 23,8 16,6 21,7 27,1 21,0 7 4 24 13 NNE 1013,4 60 0 0,0
12.08.2020 04:00:00 23,4 17,6 20,7 27,2 21,0 14 8 23 13 NNW 1013,3 60 0 0,0
12.08.2020 03:00:00 23,8 18,4 20,7 27,3 21,0 16 8 26 14 WNW 1013,7 60 0 0,2
12.08.2020 02:00:00 27,7 15,4 24,0 27,4 21,0 11 6 29 15 W 1014,2 60 0 0,0
12.08.2020 01:00:00 27,0 14,7 23,3 27,5 21,0 10 5 16 9 NW 1013,4 60 0 0,0
12.08.2020 00:00:00 27,2 14,6 23,9 27,5 21,0 9 5 13 7 N 1013,2 60 0 0,0
11.08.2020 23:00:00 28,2 14,4 23,8 27,5 21,0 10 6 15 8 NE 1013,1 60 0 0,0
11.08.2020 22:00:00 28,0 13,5 24,5 27,4 21,0 3 1 9 5 ENE 1012,8 19 0 0,0
11.08.2020 21:00:00 30,6 13,8 27,3 27,3 21,0 7 4 14 8 ENE 1012,2 60 0 0,0
11.08.2020 20:00:00 33,2 13,8 33,5 27,1 21,0 11 6 18 10 E 1011,7 20 45 0,0
11.08.2020 19:00:00 34,9 13,7 40,3 26,8 21,0 13 7 21 11 E 1011,2 58 60 0,0
11.08.2020 18:00:00 35,3 13,5 45,8 26,6 20,9 9 5 18 10 SSE 1011,5 7 60 0,0
11.08.2020 17:00:00 35,6 13,7 49,6 26,3 21,0 7 4 22 12 N 1012,0 36 60 0,0
11.08.2020 16:00:00 34,8 14,1 49,3 26,0 20,9 10 5 17 9 E 1012,6 8 60 0,0
11.08.2020 15:00:00 34,0 14,0 49,7 25,9 21,0 10 5 22 12 E 1013,3 19 60 0,0
11.08.2020 14:00:00 33,6 14,1 50,1 25,7 20,9 9 5 20 11 E 1013,9 38 60 0,0
11.08.2020 13:00:00 32,7 14,8 46,7 25,7 21,0 5 3 16 8 SSE 1014,5 9 60 0,0
11.08.2020 12:00:00 30,5 15,0 37,2 25,7 20,9 8 4 16 9 ESE 1015,0 18 60 0,0
11.08.2020 11:00:00 28,7 15,2 30,9 25,8 20,9 10 5 24 13 SSE 1014,9 56 26 0,0
11.08.2020 10:00:00 27,1 15,5 29,9 25,9 20,9 16 9 23 13 S 1014,9 18 17 0,0
11.08.2020 09:00:00 25,7 15,4 24,1 26,1 20,9 13 7 20 11 SSW 1014,9 60 60 0,0
11.08.2020 08:00:00 22,0 15,4 18,3 26,2 20,9 4 2 8 4 S 1015,1 59 38 0,0
11.08.2020 07:00:00 19,4 14,2 17,7 26,4 20,9 3 2 6 3 S 1014,8 60 0 0,0
11.08.2020 06:00:00 19,5 13,9 18,1 26,5 20,9 2 1 8 5 S 1014,5 60 0 0,0
11.08.2020 05:00:00 21,1 14,3 19,2 26,7 20,9 6 4 11 6 S 1014,0 60 0 0,0
11.08.2020 04:00:00 22,2 13,5 20,4 26,8 20,9 8 5 13 7 S 1013,9 60 0 0,0
11.08.2020 03:00:00 24,7 14,2 22,3 26,9 20,9 10 6 29 16 SW 1014,0 60 0 0,0
11.08.2020 02:00:00 24,6 13,8 23,0 27,0 20,9 21 12 31 17 SSW 1013,8 60 0 0,0
11.08.2020 01:00:00 25,2 14,0 23,9 27,1 20,9 23 12 36 20 S 1014,0 60 0 0,0
11.08.2020 00:00:00 25,7 17,4 23,9 27,1 20,8 12 7 17 9 S 1013,2 57 0 0,0
10.08.2020 23:00:00 26,4 15,7 24,4 27,2 20,8 8 4 19 11 SSE 1012,9 57 0 0,0
10.08.2020 22:00:00 28,8 14,2 24,6 27,2 20,8 6 3 8 5 SW 1012,1 60 0 0,0
10.08.2020 21:00:00 30,3 13,1 26,9 27,1 20,8 3 2 10 6 SW 1011,1 60 0 0,0
10.08.2020 20:00:00 33,1 12,7 32,6 26,9 20,8 9 5 15 8 S 1010,6 60 0 0,0
10.08.2020 19:00:00 34,3 12,6 36,7 26,8 20,8 9 5 15 8 SSE 1010,0 59 0 0,0
10.08.2020 18:00:00 34,9 12,5 40,8 26,6 20,8 8 4 17 9 ESE 1010,1 53 36 0,0
10.08.2020 17:00:00 34,3 12,6 39,6 26,3 20,8 8 4 20 11 E 1010,2 58 21 0,0
10.08.2020 16:00:00 34,5 12,8 43,4 26,1 20,8 8 5 19 10 ESE 1010,6 50 52 0,0
10.08.2020 15:00:00 34,5 13,3 49,5 25,9 20,8 6 3 23 12 S 1010,7 19 60 0,0
10.08.2020 14:00:00 33,4 15,4 40,6 25,8 20,8 4 2 11 6 E 1011,7 19 9 0,0
10.08.2020 13:00:00 32,3 14,9 46,6 25,7 20,8 7 4 14 8 NNE 1012,1 20 26 0,0
10.08.2020 12:00:00 32,2 15,2 44,1 25,7 20,8 6 3 13 7 E 1012,3 55 60 0,0
10.08.2020 11:00:00 29,6 15,0 38,3 25,8 20,8 6 3 17 9 N 1012,8 41 60 0,0
10.08.2020 10:00:00 28,2 15,1 29,8 25,9 20,7 13 7 21 11 ENE 1012,6 60 26 0,0
10.08.2020 09:00:00 25,9 14,7 26,2 26,0 20,8 11 6 18 10 N 1012,9 59 3 0,0
10.08.2020 08:00:00 24,9 14,4 20,5 26,1 20,8 12 7 28 15 NW 1013,3 60 36 0,0
10.08.2020 07:00:00 21,8 14,4 18,5 26,3 20,7 11 6 16 8 NW 1013,4 60 0 0,0
10.08.2020 06:00:00 21,5 13,1 18,8 26,4 20,7 4 2 9 5 NW 1013,3 60 0 0,0
10.08.2020 05:00:00 22,2 13,0 19,8 26,5 20,7 0 0 10 5 N 1013,0 60 0 0,0
10.08.2020 04:00:00 24,5 13,1 22,9 26,6 20,7 9 5 22 12 NNE 1013,0 60 0 0,0
10.08.2020 03:00:00 25,9 13,1 24,5 26,7 20,7 16 9 24 13 N 1013,0 60 0 0,0
10.08.2020 02:00:00 26,3 13,1 25,3 26,8 20,7 16 9 26 14 N 1013,5 60 0 0,0
10.08.2020 01:00:00 26,5 12,2 25,5 26,9 20,7 18 10 23 13 NNE 1013,6 60 0 0,0
10.08.2020 00:00:00 28,0 11,5 25,0 26,9 20,7 14 7 34 19 N 1013,4 60 0 0,0
09.08.2020 23:00:00 28,2 12,9 25,2 26,9 20,7 11 6 18 10 N 1013,4 60 0 0,0
09.08.2020 22:00:00 29,7 13,0 25,8 26,9 20,7 12 6 18 10 NE 1012,5 59 0 0,0
09.08.2020 21:00:00 31,2 12,5 28,6 26,8 20,7 9 5 18 10 NNW 1011,9 57 0 0,0
09.08.2020 20:00:00 33,5 11,4 32,4 26,6 20,7 3 2 11 6 SW 1011,7 60 0 0,0
09.08.2020 19:00:00 33,8 11,6 33,4 26,4 20,7 9 5 16 9 ESE 1011,5 60 0 0,0
09.08.2020 18:00:00 35,3 10,4 38,6 26,1 20,7 6 3 19 10 E 1011,9 59 49 0,0
09.08.2020 17:00:00 36,4 10,6 49,2 25,8 20,7 9 5 38 21 ENE 1012,2 59 60 0,0
09.08.2020 16:00:00 36,4 11,3 50,0 25,5 20,6 6 3 21 11 NNE 1012,7 60 60 0,0
09.08.2020 15:00:00 36,1 12,3 52,6 25,3 20,6 6 3 30 16 NNE 1013,4 8 60 0,0
09.08.2020 14:00:00 35,5 12,5 50,9 25,1 20,6 6 4 24 13 E 1014,2 18 60 0,0
09.08.2020 13:00:00 33,9 12,3 48,1 25,0 20,6 6 3 17 9 E 1014,8 60 60 0,0
09.08.2020 12:00:00 32,2 13,9 41,2 25,0 20,6 5 3 15 8 NNE 1015,5 14 60 0,0
09.08.2020 11:00:00 29,4 13,6 36,8 25,1 20,6 4 2 10 5 NNE 1016,4 55 60 0,0
09.08.2020 10:00:00 27,4 14,4 30,6 25,2 20,6 6 3 12 6 ENE 1016,7 32 60 0,0
09.08.2020 09:00:00 25,0 14,2 24,9 25,4 20,6 6 4 13 7 NNE 1017,1 49 60 0,0
09.08.2020 08:00:00 22,4 12,9 18,3 25,5 20,6 5 3 7 4 N 1017,0 42 60 0,0
09.08.2020 07:00:00 20,1 11,8 17,6 25,7 20,6 5 3 7 4 NW 1017,2 60 0 0,0
09.08.2020 06:00:00 20,2 11,7 17,6 25,8 20,6 5 3 8 4 N 1016,9 60 0 0,0
09.08.2020 05:00:00 20,6 11,5 18,2 25,9 20,6 8 5 10 5 NNW 1017,0 60 0 0,0
09.08.2020 04:00:00 21,9 11,6 18,6 26,1 20,6 8 5 11 6 NNW 1016,9 60 0 0,0
09.08.2020 03:00:00 22,5 11,6 19,1 26,2 20,6 9 5 10 5 NNW 1016,7 60 0 0,0
09.08.2020 02:00:00 23,2 11,3 19,9 26,3 20,6 8 4 10 5 NNW 1016,6 60 0 0,0
09.08.2020 01:00:00 24,1 11,8 20,1 26,4 20,6 6 3 10 6 N 1016,6 60 0 0,0
09.08.2020 00:00:00 25,3 11,8 20,5 26,5 20,6 9 5 11 6 NNW 1016,3 52 0 0,0
08.08.2020 23:00:00 25,0 10,5 21,3 26,5 20,6 5 3 6 3 W 1016,3 60 0 0,0
08.08.2020 22:00:00 27,7 11,3 22,9 26,4 20,6 5 3 7 4 NE 1016,0 44 0 0,0
08.08.2020 21:00:00 31,2 10,5 26,2 26,3 20,6 4 2 16 9 E 1015,7 60 26 0,0
08.08.2020 20:00:00 33,7 9,7 33,9 26,0 20,6 14 8 23 12 E 1015,2 26 60 0,0
08.08.2020 19:00:00 35,6 8,4 40,7 25,8 20,6 13 7 23 12 ENE 1015,0 60 60 0,0
08.08.2020 18:00:00 36,1 7,2 45,4 25,5 20,6 15 8 26 14 NE 1015,3 20 60 0,0
08.08.2020 17:00:00 36,4 9,8 50,5 25,2 20,6 11 6 23 13 N 1015,6 18 60 0,0
08.08.2020 16:00:00 35,6 10,6 50,1 24,9 20,6 6 3 21 11 NNE 1016,1 60 60 0,0
08.08.2020 15:00:00 34,9 10,7 52,8 24,7 20,6 8 4 20 11 NNE 1016,8 20 60 0,0
08.08.2020 14:00:00 34,5 12,8 47,3 24,5 20,5 9 5 20 11 E 1017,2 60 60 0,0
08.08.2020 13:00:00 32,6 13,8 47,4 24,4 20,5 7 4 16 9 NE 1017,7 53 60 0,0
08.08.2020 12:00:00 31,1 15,1 39,5 24,3 20,5 7 4 15 8 NNE 1018,2 20 60 0,0
08.08.2020 11:00:00 28,4 15,3 36,4 24,4 20,5 5 3 11 6 ENE 1018,7 20 60 0,0
08.08.2020 10:00:00 26,0 15,1 29,9 24,6 20,6 6 4 11 6 NE 1019,1 20 60 0,0
08.08.2020 09:00:00 24,0 15,0 24,2 24,7 20,6 6 3 11 6 NNE 1019,4 43 60 0,0
08.08.2020 08:00:00 21,4 13,1 16,8 24,8 20,5 3 2 9 5 N 1019,3 58 60 0,0
08.08.2020 07:00:00 18,6 12,1 15,4 25,0 20,5 5 3 8 4 NNW 1019,2 60 18 0,0
08.08.2020 06:00:00 19,2 12,0 16,8 25,1 20,6 8 4 12 7 NNW 1018,8 60 0 0,0
08.08.2020 05:00:00 19,6 11,9 17,3 25,3 20,5 9 5 13 7 NNW 1018,5 60 0 0,0
08.08.2020 04:00:00 20,4 11,9 17,6 25,4 20,5 11 6 14 8 NW 1018,3 60 0 0,0
08.08.2020 03:00:00 21,2 11,8 18,3 25,6 20,6 10 6 13 7 NW 1017,9 60 0 0,0
08.08.2020 02:00:00 21,5 11,2 18,9 25,7 20,5 10 5 13 7 NNW 1017,9 60 0 0,0
08.08.2020 01:00:00 22,7 11,4 18,4 25,7 20,5 9 5 11 6 NNW 1017,8 60 0 0,0
08.08.2020 00:00:00 23,9 11,9 18,9 25,7 20,5 7 4 9 5 NW 1017,5 60 0 0,0
07.08.2020 23:00:00 24,9 11,8 20,7 25,8 20,5 6 3 7 4 N 1016,9 60 0 0,0
07.08.2020 22:00:00 26,3 11,6 21,3 25,7 20,6 0 0 6 3 N 1016,7 60 0 0,0
07.08.2020 21:00:00 29,6 10,7 25,6 25,5 20,6 6 3 19 10 ENE 1015,9 60 45 0,0
07.08.2020 20:00:00 32,3 11,5 33,2 25,3 20,5 14 8 21 12 E 1015,5 8 60 0,0
07.08.2020 19:00:00 34,0 11,8 40,4 25,0 20,5 11 6 26 14 ENE 1015,3 55 60 0,0
07.08.2020 18:00:00 34,2 10,7 45,8 24,7 20,5 10 5 23 12 E 1015,7 41 60 0,0
07.08.2020 17:00:00 34,2 11,4 48,9 24,4 20,5 10 6 20 11 ENE 1015,9 60 60 0,0
07.08.2020 16:00:00 33,6 13,1 47,9 24,1 20,6 5 3 24 13 ESE 1016,2 15 60 0,0
07.08.2020 15:00:00 32,8 13,4 49,9 23,9 20,6 13 7 21 11 N 1016,6 60 60 0,0
07.08.2020 14:00:00 31,2 13,5 47,8 23,6 20,5 9 5 23 12 NE 1017,2 20 60 0,0

tt = Température de l'air
td = dewpoint
tt 5cm = Température de l'air 5cm
tt -20cm = Température de l'air -20cm
tt -100cm = Température de l'air -100cm
ff = Vitesse du vent
fx = gusts
dd = Direction du vent
ppp = reduced air pressure
vv = visibility
sd = Ensoleillement
rr = Quantités de précipitations

stations d'obs. à proximité